Preview of NWS' New Version of Forecast
This preview is not operational and should not be used for support decisions.

Regional Weather Roundup (RWR)

Issued by National Weather Service (NWS)

                            
000
ASUS43 KLSX 241407
RWRMO 

WEATHER SUMMARY FOR MISSOURI
NATIONAL WEATHER SERVICE SPRINGFIELD MO
900 AM CDT WED APR 24 2019

NOTE: "FAIR" INDICATES FEW OR NO CLOUDS BELOW 12,000 FEET WITH NO
       SIGNIFICANT WEATHER AND/OR OBSTRUCTIONS TO VISIBILITY.
       CURRENT SKY AND/OR WEATHER CONDITIONS ARE NOT AVAILABLE FOR
       CHILLICOTHE AND FARMINGTON.

MOZ001>031-035>038-043-044-053-054-241500-
...NORTHERN AND WESTERN MISSOURI...
  
CITY           SKY/WX    TMP DP  RH WIND       PRES   REMARKS
KANSAS CTY INT CLOUDY    55  50  83 CALM      29.94F                  
KANSAS C DTWN  CLOUDY    56  50  80 NE3       29.93F                  
LEE'S SUMMIT   CLOUDY    54  51  90 E5        29.94S                  
ST JOSEPH      CLOUDY    54  52  93 N5        29.95F                  
CHILLICOTHE      N/A     55  50  83 E3        29.96S                  
KIRKSVILLE     CLOUDY    53  52  96 E5        29.96S FOG              
     
$$
MOZ066>068-077>081-088>096-101>105-241500-
...SOUTHWEST MISSOURI...
  
CITY           SKY/WX    TMP DP  RH WIND       PRES   REMARKS
SPRINGFIELD    CLOUDY    58  57  97 CALM      29.92S FOG              
JOPLIN         FOG       54  54 100 NW5       29.94S VSB 1/4          
BRANSON        FOG       59  59 100 CALM      29.92F VSB 1            
               
$$
MOZ032>034-039>042-045>050-055>058-069>072-241500-
...CENTRAL MISSOURI...  
  
CITY           SKY/WX    TMP DP  RH WIND       PRES   REMARKS
COLUMBIA       FOG       56  54  93 NE6       29.93S VSB 1/4          
JEFFERSON CITY CLOUDY    57  55  94 CALM      29.93S FOG              
ROLLA          CLOUDY    57  55  93 SW5       29.94S FOG              
SEDALIA        CLOUDY    53  53 100 E3        29.95R FOG              
WHITEMAN AFB   CLOUDY    54  54 100 NE3       29.89  FOG              
WARRENSBURG    CLOUDY    54  52  94 N3        29.93F FOG              
OSAGE BEACH    FOG       57  56  96 CALM      29.95R VSB 1/4          
               
$$
MOZ051-052-059>065-241500-
...EAST CENTRAL MISSOURI...
  
CITY           SKY/WX    TMP DP  RH WIND       PRES   REMARKS
ST LOUIS INTL  CLOUDY    57  55  93 E9        29.94S                  
SPIRIT OF STL  CLOUDY    59  57  93 E3        29.93R FOG              
ST CHARLES     CLOUDY    57  56  96 E9        29.94S                  
                   
$$
MOZ072>076-082>087-097>100-106>115-241500-
...SOUTH CENTRAL AND SOUTHEAST MISSOURI...
  
CITY           SKY/WX    TMP DP  RH WIND       PRES   REMARKS
CAPE GIRARDEAU FAIR      67  59  75 S7        29.92F                  
FARMINGTON     CLOUDY    60  59  96 S6        29.93S FOG              
POPLAR BLUFF   FAIR      66  62  87 SW7       29.92F                  
WEST PLAINS    FAIR      68  60  75 W7        29.92F                  
                                       
$$